M I D A S
Marine Information and Data Acquisition System
Tripno 1196 of the Zeeleeuw from 2006-11-27 08:23:47 to 2006-11-27 14:41:10
Back to CruiseResearch ActivitiesStationsMapUnderway DataData graphs

EquipmentUnitsComments
TimeDGPSUTC
LatitudeDGPSDM.mWGS84
LongitudeDGPSDM.mWGS84
SpeedMeteo Stationm/sRelative wind speed
DirectionMeteo StationdegRelative wind direction
TemperatureMeteo Stationdeg CelciusAir temperature
PressureMeteo StationPaAtmospheric pressure
HumidityMeteo Station%Relative humidity
Missing or incorrect values are displayed as -999
Metereological data collected by the RV Zeeleeuw from 2006-11-27 06:59:38 to 2006-11-27 14:41:10
                                                                                    Next 1000 lines
Time Latitude Longitude Speed Direction Temperature Pressure Humidity
2006-11-27 06:59:48 51°13.598 2°56.094 3 351 9.1 101470 95
2006-11-27 06:59:53 51°13.598 2°56.094 2.8 355 9.1 101470 95
2006-11-27 06:59:58 51°13.598 2°56.094 5 357 9.1 101470 95
2006-11-27 07:00:03 51°13.598 2°56.094 3.6 357 9.1 101470 95
2006-11-27 07:00:08 51°13.598 2°56.094 3.2 349 9.1 101470 95
2006-11-27 07:00:13 51°13.598 2°56.095 3.3 354 9.1 101470 95
2006-11-27 07:00:18 51°13.598 2°56.095 3 3 9.1 101470 95
2006-11-27 07:00:23 51°13.598 2°56.095 4 285 9.1 101470 95
2006-11-27 07:00:28 51°13.597 2°56.095 3.1 341 9.1 101470 95
2006-11-27 07:00:33 51°13.597 2°56.095 4 330 9.1 101470 95
2006-11-27 07:00:38 51°13.597 2°56.095 2.7 334 9.1 101470 95
2006-11-27 07:00:43 51°13.598 2°56.095 3 351 9.1 101470 95
2006-11-27 07:00:48 51°13.598 2°56.095 3.4 352 9.1 101470 95
2006-11-27 07:00:53 51°13.598 2°56.095 3.6 346 9.1 101470 95
2006-11-27 07:00:58 51°13.598 2°56.094 2.1 347 9.1 101470 95
2006-11-27 07:01:03 51°13.598 2°56.094 3 347 9.1 101470 95
2006-11-27 07:01:08 51°13.598 2°56.094 3.3 354 9.1 101470 95
2006-11-27 07:01:13 51°13.598 2°56.094 2.2 357 9.1 101470 95
2006-11-27 07:01:18 51°13.598 2°56.094 3 357 9.1 101470 95
2006-11-27 07:01:23 51°13.598 2°56.094 2.6 348 9.1 101470 95
2006-11-27 07:01:28 51°13.598 2°56.094 3.5 343 9.1 101470 95
2006-11-27 07:01:33 51°13.598 2°56.094 3.7 356 9.1 101470 95
2006-11-27 07:01:38 51°13.598 2°56.094 3.8 349 9.1 101470 95
2006-11-27 07:01:43 51°13.598 2°56.094 5.2 354 9.2 101470 95
2006-11-27 07:01:48 51°13.598 2°56.094 3 353 9.2 101470 95
2006-11-27 07:01:53 51°13.598 2°56.095 3.1 350 9.2 101470 95
2006-11-27 07:01:58 51°13.598 2°56.095 2.5 6 9.2 101470 95
2006-11-27 07:02:03 51°13.598 2°56.094 2.5 352 9.2 101470 95
2006-11-27 07:02:08 51°13.598 2°56.094 2.9 340 9.2 101470 95
2006-11-27 07:02:13 51°13.598 2°56.094 3.3 281 9.2 101470 95
2006-11-27 07:02:18 51°13.598 2°56.093 2.9 346 9.2 101470 95
2006-11-27 07:02:23 51°13.598 2°56.093 3.1 358 9.2 101470 95
2006-11-27 07:02:28 51°13.599 2°56.093 4.5 357 9.2 101470 95
2006-11-27 07:02:33 51°13.599 2°56.093 3.2 3 9.2 101470 95
2006-11-27 07:02:38 51°13.598 2°56.093 3.6 346 9.2 101470 95
2006-11-27 07:02:43 51°13.598 2°56.093 3.7 284 9.2 101470 95
2006-11-27 07:02:48 51°13.598 2°56.094 3 346 9.2 101470 95
2006-11-27 07:02:53 51°13.598 2°56.094 3.3 342 9.2 101470 95
2006-11-27 07:02:58 51°13.598 2°56.094 3.7 349 9.2 101470 95
2006-11-27 07:03:03 51°13.598 2°56.095 2.3 349 9.2 101470 95
2006-11-27 07:03:08 51°13.598 2°56.095 3 354 9.2 101470 95
2006-11-27 07:03:13 51°13.598 2°56.095 3.6 8 9.2 101470 95
2006-11-27 07:03:18 51°13.598 2°56.094 3.2 350 9.2 101470 95
2006-11-27 07:03:23 51°13.598 2°56.094 3.7 3 9.2 101470 95
2006-11-27 07:03:28 51°13.598 2°56.094 3.4 354 9.2 101470 95
2006-11-27 07:03:33 51°13.598 2°56.094 2.9 349 9.2 101470 95
2006-11-27 07:03:38 51°13.599 2°56.093 2.4 352 9.2 101470 95
2006-11-27 07:03:43 51°13.599 2°56.093 4.2 1 9.2 101470 95
2006-11-27 07:03:48 51°13.599 2°56.093 2.9 342 9.2 101470 95
2006-11-27 07:03:53 51°13.599 2°56.094 3.3 340 9.2 101470 95
2006-11-27 07:03:58 51°13.599 2°56.094 3.6 354 9.2 101470 95
2006-11-27 07:04:03 51°13.599 2°56.094 3.7 342 9.2 101480 95
2006-11-27 07:04:08 51°13.599 2°56.094 3.8 351 9.2 101480 95
2006-11-27 07:04:13 51°13.599 2°56.094 4 358 9.2 101470 95
2006-11-27 07:04:18 51°13.598 2°56.095 4.2 358 9.2 101470 95
2006-11-27 07:04:23 51°13.598 2°56.094 3.9 351 9.2 101470 95
2006-11-27 07:04:28 51°13.598 2°56.094 2.4 343 9.2 101470 95
2006-11-27 07:04:33 51°13.598 2°56.094 2.7 352 9.2 101470 95
2006-11-27 07:04:38 51°13.598 2°56.094 2.2 335 9.2 101470 95
2006-11-27 07:04:43 51°13.598 2°56.094 3.1 287 9.2 101470 95
2006-11-27 07:04:48 51°13.599 2°56.094 3.8 349 9.2 101470 95
2006-11-27 07:04:53 51°13.599 2°56.094 3.5 354 9.2 101470 95
2006-11-27 07:04:58 51°13.599 2°56.094 3.2 330 9.2 101470 95
2006-11-27 07:05:03 51°13.599 2°56.093 3.6 282 9.2 101470 95
2006-11-27 07:05:08 51°13.599 2°56.093 3 331 9.2 101470 95
2006-11-27 07:05:13 51°13.599 2°56.093 3.1 340 9.2 101470 95
2006-11-27 07:05:18 51°13.599 2°56.093 3.4 349 9.2 101470 95
2006-11-27 07:05:23 51°13.599 2°56.094 2.3 354 9.2 101470 95
2006-11-27 07:05:28 51°13.599 2°56.094 2.7 351 9.2 101470 95
2006-11-27 07:05:33 51°13.599 2°56.094 3.1 347 9.2 101470 95
2006-11-27 07:05:38 51°13.599 2°56.094 3.6 356 9.2 101470 95
2006-11-27 07:05:43 51°13.599 2°56.094 3 278 9.2 101470 95
2006-11-27 07:05:48 51°13.599 2°56.094 4.8 352 9.2 101470 95
2006-11-27 07:05:53 51°13.599 2°56.094 4.4 354 9.2 101470 95
2006-11-27 07:05:58 51°13.599 2°56.094 5.3 353 9.2 101470 95
2006-11-27 07:06:03 51°13.599 2°56.094 3.8 287 9.2 101470 95
2006-11-27 07:06:08 51°13.599 2°56.094 4 350 9.2 101470 95
2006-11-27 07:06:13 51°13.599 2°56.094 4.1 353 9.2 101470 95
2006-11-27 07:06:18 51°13.599 2°56.094 4 349 9.2 101470 95
2006-11-27 07:06:23 51°13.599 2°56.094 4 351 9.2 101470 95
2006-11-27 07:06:28 51°13.599 2°56.094 2.6 353 9.2 101470 95
2006-11-27 07:06:33 51°13.599 2°56.094 3.3 284 9.2 101470 95
2006-11-27 07:06:38 51°13.599 2°56.094 4.1 346 9.2 101470 95
2006-11-27 07:06:43 51°13.599 2°56.094 3.6 349 9.2 101470 95
2006-11-27 07:06:48 51°13.599 2°56.094 2.8 354 9.2 101470 95
2006-11-27 07:06:53 51°13.599 2°56.094 3.4 358 9.2 101470 95
2006-11-27 07:06:58 51°13.599 2°56.094 3.7 353 9.2 101470 95
2006-11-27 07:07:03 51°13.599 2°56.094 4.4 351 9.2 101470 95
2006-11-27 07:07:08 51°13.599 2°56.095 4.5 355 9.2 101470 95
2006-11-27 07:07:13 51°13.599 2°56.095 3.7 349 9.3 101480 95
2006-11-27 07:07:18 51°13.599 2°56.095 2.6 353 9.3 101480 95
2006-11-27 07:07:23 51°13.599 2°56.095 2.6 287 9.3 101470 95
2006-11-27 07:07:28 51°13.599 2°56.095 2.7 342 9.3 101470 95
2006-11-27 07:07:33 51°13.599 2°56.095 3.4 345 9.3 101470 95
2006-11-27 07:07:38 51°13.599 2°56.095 5.1 339 9.3 101470 95
2006-11-27 07:07:43 51°13.599 2°56.094 4.1 343 9.3 101470 95
2006-11-27 07:07:48 51°13.599 2°56.094 4.2 353 9.3 101470 95
2006-11-27 07:07:53 51°13.599 2°56.094 3.6 352 9.3 101470 95
2006-11-27 07:07:58 51°13.599 2°56.094 3.8 348 9.3 101470 95
2006-11-27 07:08:03 51°13.599 2°56.094 4.2 279 9.3 101470 95
2006-11-27 07:08:08 51°13.599 2°56.094 4.2 352 9.3 101470 95
2006-11-27 07:08:13 51°13.599 2°56.095 3.9 358 9.3 101470 94
2006-11-27 07:08:18 51°13.599 2°56.095 3.4 337 9.3 101470 94
2006-11-27 07:08:23 51°13.599 2°56.095 6.2 281 9.2 101470 94
2006-11-27 07:08:28 51°13.599 2°56.095 4.4 346 9.2 101470 94
2006-11-27 07:08:33 51°13.599 2°56.095 3.8 349 9.3 101470 94
2006-11-27 07:08:38 51°13.599 2°56.095 3.9 348 9.3 101470 94
2006-11-27 07:08:43 51°13.599 2°56.095 3.4 344 9.3 101470 94
2006-11-27 07:08:48 51°13.599 2°56.094 3.1 337 9.3 101470 94
2006-11-27 07:08:53 51°13.599 2°56.094 3.8 343 9.3 101470 94
2006-11-27 07:08:58 51°13.599 2°56.094 3.6 338 9.3 101470 94
2006-11-27 07:09:03 51°13.599 2°56.094 3.8 343 9.3 101470 94
2006-11-27 07:09:08 51°13.599 2°56.094 3.6 355 9.3 101470 94
2006-11-27 07:09:13 51°13.599 2°56.094 2.6 355 9.3 101470 94
2006-11-27 07:09:18 51°13.599 2°56.094 3 346 9.3 101470 94
2006-11-27 07:09:23 51°13.599 2°56.094 3 334 9.3 101470 94
2006-11-27 07:09:28 51°13.599 2°56.094 3.2 341 9.3 101470 94
2006-11-27 07:09:33 51°13.599 2°56.094 3.5 349 9.3 101480 94
2006-11-27 07:09:38 51°13.599 2°56.094 4 351 9.3 101480 94
2006-11-27 07:09:43 51°13.599 2°56.094 4.6 285 9.3 101470 94
2006-11-27 07:09:48 51°13.599 2°56.094 3.7 338 9.3 101470 94
2006-11-27 07:09:53 51°13.599 2°56.095 2.9 345 9.3 101480 94
2006-11-27 07:09:58 51°13.599 2°56.095 2.8 346 9.3 101480 94
2006-11-27 07:10:03 51°13.599 2°56.095 3.1 346 9.3 101470 94
2006-11-27 07:10:08 51°13.599 2°56.095 2.1 334 9.3 101470 94
2006-11-27 07:10:13 51°13.599 2°56.094 2 345 9.3 101470 94
2006-11-27 07:10:18 51°13.599 2°56.094 1.8 326 9.3 101470 94
2006-11-27 07:10:23 51°13.599 2°56.094 4 282 9.3 101470 94
2006-11-27 07:10:28 51°13.599 2°56.094 2.2 347 9.3 101470 94
2006-11-27 07:10:33 51°13.599 2°56.094 2.6 340 9.3 101470 94
2006-11-27 07:10:38 51°13.599 2°56.094 3.1 351 9.3 101470 94
2006-11-27 07:10:43 51°13.599 2°56.094 3.8 342 9.3 101470 94
2006-11-27 07:10:48 51°13.599 2°56.094 3.8 341 9.3 101470 94
2006-11-27 07:10:53 51°13.599 2°56.094 3.7 350 9.3 101470 94
2006-11-27 07:10:58 51°13.599 2°56.094 3.3 350 9.3 101470 94
2006-11-27 07:11:03 51°13.599 2°56.094 4.6 346 9.3 101470 94
2006-11-27 07:11:08 51°13.599 2°56.094 3 345 9.3 101470 94
2006-11-27 07:11:13 51°13.599 2°56.094 3.3 281 9.3 101470 94
2006-11-27 07:11:18 51°13.599 2°56.094 2.5 354 9.3 101470 94
2006-11-27 07:11:23 51°13.599 2°56.094 2.5 339 9.3 101470 94
2006-11-27 07:11:28 51°13.599 2°56.095 3 332 9.3 101470 94
2006-11-27 07:11:33 51°13.599 2°56.094 3.8 285 9.3 101470 94
2006-11-27 07:11:38 51°13.599 2°56.094 4.7 338 9.3 101470 94
2006-11-27 07:11:43 51°13.599 2°56.094 3.8 349 9.3 101470 94
2006-11-27 07:11:48 51°13.599 2°56.094 3.5 358 9.3 101470 94
2006-11-27 07:11:53 51°13.599 2°56.094 3.7 351 9.3 101470 94
2006-11-27 07:11:58 51°13.599 2°56.094 3.1 349 9.3 101470 94
2006-11-27 07:12:03 51°13.599 2°56.094 2.9 284 9.3 101470 94
2006-11-27 07:12:08 51°13.599 2°56.093 3.2 343 9.3 101470 94
2006-11-27 07:12:13 51°13.599 2°56.093 3.2 341 9.3 101470 94
2006-11-27 07:12:18 51°13.599 2°56.094 2.5 338 9.3 101470 94
2006-11-27 07:12:23 51°13.599 2°56.094 3.8 349 9.3 101480 94
2006-11-27 07:12:28 51°13.599 2°56.094 3.3 5 9.3 101480 94
2006-11-27 07:12:33 51°13.599 2°56.094 4.1 357 9.3 101470 94
2006-11-27 07:12:38 51°13.599 2°56.094 2.6 2 9.3 101470 94
2006-11-27 07:12:43 51°13.598 2°56.094 3.4 279 9.3 101470 94
2006-11-27 07:12:48 51°13.598 2°56.094 4 334 9.3 101470 94
2006-11-27 07:12:53 51°13.598 2°56.094 3.9 347 9.4 101470 94
2006-11-27 07:12:58 51°13.598 2°56.094 3.2 331 9.4 101470 94
2006-11-27 07:13:03 51°13.598 2°56.094 3.4 338 9.4 101470 94
2006-11-27 07:13:08 51°13.598 2°56.094 1.9 345 9.4 101470 94
2006-11-27 07:13:13 51°13.599 2°56.094 4 280 9.4 101470 94
2006-11-27 07:13:18 51°13.599 2°56.094 3.4 351 9.4 101470 94
2006-11-27 07:13:23 51°13.599 2°56.094 4.2 342 9.4 101470 94
2006-11-27 07:13:28 51°13.599 2°56.094 2.8 346 9.4 101470 94
2006-11-27 07:13:33 51°13.599 2°56.094 2.8 281 9.4 101470 94
2006-11-27 07:13:38 51°13.599 2°56.094 3 348 9.4 101470 94
2006-11-27 07:13:43 51°13.599 2°56.094 3.8 339 9.4 101470 94
2006-11-27 07:13:48 51°13.599 2°56.094 4.2 340 9.4 101470 94
2006-11-27 07:13:53 51°13.599 2°56.094 4.1 342 9.4 101470 94
2006-11-27 07:13:58 51°13.598 2°56.094 3.5 344 9.4 101470 94
2006-11-27 07:14:03 51°13.598 2°56.094 3.2 284 9.4 101470 94
2006-11-27 07:14:08 51°13.598 2°56.094 3 335 9.4 101470 94
2006-11-27 07:14:13 51°13.598 2°56.094 3.5 346 9.4 101470 94
2006-11-27 07:14:18 51°13.598 2°56.094 2.8 346 9.4 101470 94
2006-11-27 07:14:23 51°13.598 2°56.094 3.1 7 9.4 101470 94
2006-11-27 07:14:28 51°13.598 2°56.094 2.8 15 9.4 101470 94
2006-11-27 07:14:33 51°13.598 2°56.094 3.2 -999 9.4 101470 94
2006-11-27 07:14:38 51°13.598 2°56.094 3.6 336 9.4 101470 94
2006-11-27 07:14:43 51°13.598 2°56.094 3.8 349 9.4 101470 94
2006-11-27 07:14:48 51°13.598 2°56.094 3.3 2 9.4 101470 94
2006-11-27 07:14:53 51°13.598 2°56.094 3.2 353 9.4 101470 94
2006-11-27 07:14:58 51°13.598 2°56.094 3.7 344 9.4 101470 94
2006-11-27 07:15:03 51°13.598 2°56.094 3.4 354 9.4 101470 94
2006-11-27 07:15:08 51°13.598 2°56.094 2.4 339 9.4 101470 94
2006-11-27 07:15:13 51°13.598 2°56.094 2.4 281 9.4 101470 94
2006-11-27 07:15:18 51°13.598 2°56.094 1.9 347 9.4 101470 94
2006-11-27 07:15:23 51°13.598 2°56.094 2.9 345 9.4 101470 94
2006-11-27 07:15:28 51°13.598 2°56.094 3 356 9.4 101470 94
2006-11-27 07:15:33 51°13.598 2°56.094 2.5 355 9.4 101470 94
2006-11-27 07:15:38 51°13.598 2°56.094 3.1 346 9.4 101470 94
2006-11-27 07:15:43 51°13.598 2°56.094 3.1 358 9.4 101470 94
2006-11-27 07:15:48 51°13.598 2°56.094 3.6 345 9.4 101470 94
2006-11-27 07:15:53 51°13.598 2°56.094 3.3 345 9.4 101470 94
2006-11-27 07:15:58 51°13.598 2°56.094 1.4 343 9.4 101470 94
2006-11-27 07:16:03 51°13.598 2°56.094 3.2 348 9.4 101470 94
2006-11-27 07:16:08 51°13.598 2°56.094 3.8 339 9.4 101470 94
2006-11-27 07:16:13 51°13.598 2°56.094 2.7 285 9.4 101480 94
2006-11-27 07:16:18 51°13.599 2°56.094 4.1 349 9.4 101480 94
2006-11-27 07:16:23 51°13.599 2°56.094 3.1 4 9.4 101470 94
2006-11-27 07:16:28 51°13.599 2°56.094 3.9 354 9.4 101470 94
2006-11-27 07:16:33 51°13.599 2°56.094 4.5 348 9.4 101470 94
2006-11-27 07:16:38 51°13.599 2°56.094 5 359 9.4 101470 94
2006-11-27 07:16:43 51°13.599 2°56.094 3.9 8 9.4 101470 94
2006-11-27 07:16:48 51°13.599 2°56.094 3.7 349 9.4 101470 94
2006-11-27 07:16:53 51°13.599 2°56.094 2.9 354 9.4 101470 94
2006-11-27 07:16:58 51°13.599 2°56.094 3 342 9.4 101470 94
2006-11-27 07:17:03 51°13.599 2°56.094 3.2 280 9.4 101470 94
2006-11-27 07:17:08 51°13.599 2°56.094 3 353 9.4 101470 94
2006-11-27 07:17:13 51°13.598 2°56.094 3.8 339 9.4 101470 94
2006-11-27 07:17:18 51°13.598 2°56.094 3.6 2 9.4 101470 94
2006-11-27 07:17:23 51°13.598 2°56.094 3.3 352 9.4 101470 94
2006-11-27 07:17:28 51°13.598 2°56.094 2.2 344 9.4 101470 94
2006-11-27 07:17:33 51°13.598 2°56.094 2.7 356 9.5 101470 94
2006-11-27 07:17:38 51°13.598 2°56.094 2.5 348 9.5 101470 94
2006-11-27 07:17:43 51°13.598 2°56.094 2.7 344 9.5 101470 94
2006-11-27 07:17:48 51°13.598 2°56.094 2.6 348 9.5 101470 94
2006-11-27 07:17:53 51°13.598 2°56.094 3.2 345 9.5 101470 93
2006-11-27 07:17:58 51°13.598 2°56.094 2.4 349 9.5 101470 93
2006-11-27 07:18:03 51°13.598 2°56.094 2.2 346 9.5 101470 93
2006-11-27 07:18:08 51°13.598 2°56.094 2.4 338 9.5 101470 93
2006-11-27 07:18:13 51°13.598 2°56.095 2.8 348 9.5 101470 93
2006-11-27 07:18:18 51°13.598 2°56.095 2.8 346 9.5 101470 93
2006-11-27 07:18:23 51°13.598 2°56.095 1.8 280 9.5 101470 93
2006-11-27 07:18:28 51°13.598 2°56.095 3 338 9.5 101470 93
2006-11-27 07:18:33 51°13.598 2°56.095 2.2 356 9.5 101470 93
2006-11-27 07:18:38 51°13.598 2°56.095 3.3 6 9.5 101470 93
2006-11-27 07:18:43 51°13.598 2°56.095 2.9 346 9.5 101470 93
2006-11-27 07:18:48 51°13.598 2°56.095 3.1 348 9.5 101470 93
2006-11-27 07:18:53 51°13.598 2°56.095 2.9 355 9.5 101470 93
2006-11-27 07:18:58 51°13.598 2°56.095 2.1 343 9.5 101470 93
2006-11-27 07:19:03 51°13.598 2°56.095 2.4 345 9.5 101470 93
2006-11-27 07:19:08 51°13.598 2°56.095 2.2 9 9.5 101470 93
2006-11-27 07:19:13 51°13.599 2°56.095 1.8 359 9.5 101470 93
2006-11-27 07:19:18 51°13.599 2°56.095 2.8 334 9.5 101470 93
2006-11-27 07:19:23 51°13.599 2°56.095 3.5 4 9.5 101470 93
2006-11-27 07:19:28 51°13.599 2°56.095 4 350 9.5 101470 93
2006-11-27 07:19:33 51°13.599 2°56.095 3.8 353 9.4 101480 93
2006-11-27 07:19:38 51°13.599 2°56.095 3.2 335 9.4 101480 93
2006-11-27 07:19:43 51°13.599 2°56.095 3.4 359 9.5 101470 93
2006-11-27 07:19:48 51°13.598 2°56.095 2.8 356 9.5 101470 93
2006-11-27 07:19:53 51°13.599 2°56.095 2.7 348 9.5 101470 93
2006-11-27 07:19:58 51°13.599 2°56.095 3.5 352 9.5 101470 93
2006-11-27 07:20:03 51°13.598 2°56.095 3.7 347 9.5 101470 93
2006-11-27 07:20:08 51°13.599 2°56.094 3.8 347 9.5 101470 93
2006-11-27 07:20:13 51°13.599 2°56.094 2.9 348 9.5 101470 93
2006-11-27 07:20:18 51°13.599 2°56.094 2.7 339 9.5 101470 93
2006-11-27 07:20:23 51°13.599 2°56.094 2.7 350 9.5 101470 93
2006-11-27 07:20:28 51°13.599 2°56.094 2.2 352 9.5 101470 93
2006-11-27 07:20:33 51°13.599 2°56.094 2.4 358 9.5 101470 93
2006-11-27 07:20:38 51°13.599 2°56.094 2.2 359 9.5 101470 93
2006-11-27 07:20:43 51°13.599 2°56.094 2.6 288 9.5 101470 93
2006-11-27 07:20:48 51°13.599 2°56.094 3.1 348 9.5 101470 93
2006-11-27 07:20:53 51°13.599 2°56.094 3.3 345 9.5 101470 93
2006-11-27 07:20:58 51°13.599 2°56.094 2.2 360 9.5 101470 93
2006-11-27 07:21:03 51°13.599 2°56.094 3.7 358 9.5 101470 93
2006-11-27 07:21:08 51°13.599 2°56.094 3.1 356 9.5 101470 93
2006-11-27 07:21:13 51°13.599 2°56.095 2.7 357 9.5 101480 93
2006-11-27 07:21:18 51°13.599 2°56.095 3.1 349 9.5 101480 93
2006-11-27 07:21:23 51°13.599 2°56.095 2.8 282 9.5 101470 93
2006-11-27 07:21:28 51°13.598 2°56.095 3.4 344 9.5 101470 93
2006-11-27 07:21:33 51°13.598 2°56.095 3 340 9.5 101480 93
2006-11-27 07:21:38 51°13.598 2°56.095 1.6 357 9.5 101480 93
2006-11-27 07:21:43 51°13.598 2°56.095 2.5 347 9.5 101470 93
2006-11-27 07:21:48 51°13.598 2°56.095 2.1 357 9.5 101470 93
2006-11-27 07:21:53 51°13.598 2°56.095 2.1 5 9.5 101470 93
2006-11-27 07:21:58 51°13.598 2°56.095 2.8 355 9.5 101470 93
2006-11-27 07:22:03 51°13.598 2°56.095 4.4 343 9.5 101470 93
2006-11-27 07:22:08 51°13.598 2°56.095 3.8 347 9.5 101470 93
2006-11-27 07:22:13 51°13.598 2°56.095 3.7 343 9.5 101470 93
2006-11-27 07:22:18 51°13.598 2°56.095 2.9 351 9.5 101470 93
2006-11-27 07:22:23 51°13.598 2°56.095 2.8 354 9.5 101470 93
2006-11-27 07:22:28 51°13.598 2°56.095 2.8 336 9.5 101470 93
2006-11-27 07:22:33 51°13.598 2°56.095 3.4 348 9.5 101480 93
2006-11-27 07:22:38 51°13.598 2°56.095 3.5 351 9.5 101480 93
2006-11-27 07:22:43 51°13.598 2°56.095 3 335 9.5 101470 93
2006-11-27 07:22:48 51°13.598 2°56.095 4 359 9.5 101470 93
2006-11-27 07:22:53 51°13.598 2°56.095 3.8 349 9.5 101470 93
2006-11-27 07:22:58 51°13.598 2°56.095 2.9 349 9.5 101470 93
2006-11-27 07:23:03 51°13.598 2°56.095 2.5 346 9.5 101470 93
2006-11-27 07:23:08 51°13.599 2°56.095 3 345 9.5 101470 93
2006-11-27 07:23:13 51°13.599 2°56.095 2.9 2 9.5 101470 93
2006-11-27 07:23:18 51°13.599 2°56.095 2.3 354 9.5 101470 93
2006-11-27 07:23:23 51°13.599 2°56.095 2.2 352 9.5 101470 93
2006-11-27 07:23:28 51°13.599 2°56.095 2.2 352 9.5 101470 93
2006-11-27 07:23:33 51°13.599 2°56.095 1.9 6 9.5 101470 93
2006-11-27 07:23:38 51°13.599 2°56.095 2.7 351 9.5 101470 93
2006-11-27 07:23:43 51°13.599 2°56.095 2.8 1 9.5 101470 93
2006-11-27 07:23:48 51°13.599 2°56.095 2 351 9.5 101470 93
2006-11-27 07:23:53 51°13.599 2°56.095 2.2 349 9.5 101470 93
2006-11-27 07:23:58 51°13.599 2°56.095 2.9 347 9.5 101470 93
2006-11-27 07:24:03 51°13.599 2°56.095 2.4 281 9.5 101480 93
2006-11-27 07:24:08 51°13.599 2°56.095 3.1 342 9.5 101480 93
2006-11-27 07:24:13 51°13.599 2°56.095 2.9 335 9.5 101480 93
2006-11-27 07:24:18 51°13.599 2°56.095 3.9 359 9.5 101480 93
2006-11-27 07:24:23 51°13.599 2°56.095 2.4 281 9.5 101470 93
2006-11-27 07:24:28 51°13.599 2°56.095 2.7 347 9.5 101470 93
2006-11-27 07:24:33 51°13.599 2°56.095 3.6 354 9.5 101470 93
2006-11-27 07:24:38 51°13.599 2°56.095 4.4 359 9.5 101470 93
2006-11-27 07:24:43 51°13.599 2°56.095 3.8 351 9.5 101480 93
2006-11-27 07:24:48 51°13.599 2°56.095 3.9 345 9.5 101480 93
2006-11-27 07:24:53 51°13.599 2°56.095 3.2 345 9.5 101480 93
2006-11-27 07:24:58 51°13.599 2°56.095 2.9 347 9.5 101480 93
2006-11-27 07:25:03 51°13.599 2°56.095 2.7 357 9.5 101480 93
2006-11-27 07:25:08 51°13.599 2°56.094 2.4 350 9.5 101480 93
2006-11-27 07:25:13 51°13.599 2°56.094 2.4 353 9.5 101470 93
2006-11-27 07:25:18 51°13.599 2°56.094 3.2 347 9.5 101470 93
2006-11-27 07:25:23 51°13.599 2°56.094 3.2 283 9.5 101480 93
2006-11-27 07:25:28 51°13.599 2°56.094 2.8 353 9.5 101480 93
2006-11-27 07:25:33 51°13.599 2°56.095 2.9 344 9.5 101480 93
2006-11-27 07:25:38 51°13.599 2°56.095 3.5 343 9.5 101480 93
2006-11-27 07:25:43 51°13.599 2°56.095 3.8 357 9.5 101480 93
2006-11-27 07:25:48 51°13.599 2°56.095 2.8 345 9.5 101480 93
2006-11-27 07:25:53 51°13.599 2°56.095 2.8 344 9.5 101480 93
2006-11-27 07:25:58 51°13.599 2°56.095 3.3 339 9.5 101480 93
2006-11-27 07:26:03 51°13.599 2°56.095 4.6 353 9.5 101480 93
2006-11-27 07:26:08 51°13.599 2°56.095 4.6 343 9.5 101480 93
2006-11-27 07:26:13 51°13.599 2°56.094 4.5 344 9.5 101480 93
2006-11-27 07:26:18 51°13.599 2°56.094 4.9 350 9.5 101480 93
2006-11-27 07:26:23 51°13.599 2°56.094 4.6 351 9.5 101480 93
2006-11-27 07:26:28 51°13.599 2°56.094 3.9 356 9.5 101480 93
2006-11-27 07:26:33 51°13.599 2°56.094 4 352 9.5 101480 93
2006-11-27 07:26:38 51°13.599 2°56.094 3.1 348 9.5 101480 93
2006-11-27 07:26:43 51°13.599 2°56.094 2.4 285 9.5 101480 93
2006-11-27 07:26:48 51°13.599 2°56.094 1.8 343 9.5 101480 93
2006-11-27 07:26:53 51°13.599 2°56.094 2.3 350 9.5 101480 93
2006-11-27 07:26:58 51°13.599 2°56.094 2.1 340 9.5 101480 93
2006-11-27 07:27:03 51°13.599 2°56.094 1.6 349 9.5 101470 93
2006-11-27 07:27:08 51°13.599 2°56.094 2.8 348 9.5 101470 93
2006-11-27 07:27:13 51°13.599 2°56.094 2.3 281 9.5 101470 93
2006-11-27 07:27:18 51°13.599 2°56.094 2.6 345 9.5 101470 93
2006-11-27 07:27:23 51°13.599 2°56.094 2.8 279 9.5 101480 93
2006-11-27 07:27:28 51°13.599 2°56.094 4.1 339 9.5 101480 93
2006-11-27 07:27:33 51°13.599 2°56.094 3.9 280 9.5 101470 92
2006-11-27 07:27:38 51°13.599 2°56.094 4.3 353 9.5 101470 92
2006-11-27 07:27:43 51°13.599 2°56.094 4.3 350 9.5 101480 92
2006-11-27 07:27:48 51°13.598 2°56.094 3.5 339 9.5 101480 92
2006-11-27 07:27:53 51°13.598 2°56.094 2.7 344 9.5 101480 92
2006-11-27 07:27:58 51°13.598 2°56.094 3.8 345 9.5 101480 92
2006-11-27 07:28:03 51°13.598 2°56.094 2.4 284 9.5 101480 92
2006-11-27 07:28:08 51°13.598 2°56.094 2.8 -999 9.5 101480 92
2006-11-27 07:28:13 51°13.598 2°56.094 2.9 348 9.5 101480 92
2006-11-27 07:28:18 51°13.598 2°56.094 3.8 356 9.5 101480 92
2006-11-27 07:28:23 51°13.598 2°56.094 4.1 2 9.5 101480 92
2006-11-27 07:28:28 51°13.598 2°56.094 4.7 348 9.5 101480 92
2006-11-27 07:28:33 51°13.598 2°56.093 3.8 351 9.5 101480 92
2006-11-27 07:28:38 51°13.598 2°56.093 4.1 353 9.5 101480 92
2006-11-27 07:28:43 51°13.598 2°56.093 3 347 9.5 101480 92
2006-11-27 07:28:48 51°13.598 2°56.093 3.2 347 9.5 101480 92
2006-11-27 07:28:53 51°13.598 2°56.093 3 340 9.5 101480 92
2006-11-27 07:28:58 51°13.598 2°56.093 3.1 354 9.5 101480 92
2006-11-27 07:29:03 51°13.598 2°56.093 2.6 339 9.5 101480 92
2006-11-27 07:29:08 51°13.598 2°56.093 2.6 338 9.5 101480 92
2006-11-27 07:29:13 51°13.598 2°56.093 2.8 354 9.5 101480 92
2006-11-27 07:29:18 51°13.598 2°56.093 3.3 -999 9.5 101480 92
2006-11-27 07:29:23 51°13.598 2°56.093 2.8 342 9.5 101480 92
2006-11-27 07:29:28 51°13.598 2°56.093 2.8 347 9.5 101480 92
2006-11-27 07:29:33 51°13.598 2°56.093 3.3 285 9.5 101480 92
2006-11-27 07:29:38 51°13.598 2°56.093 3 347 9.5 101480 92
2006-11-27 07:29:43 51°13.598 2°56.093 2.6 356 9.5 101480 92
2006-11-27 07:29:48 51°13.598 2°56.093 3.6 350 9.5 101480 92
2006-11-27 07:29:53 51°13.598 2°56.094 3.2 357 9.5 101480 92
2006-11-27 07:29:58 51°13.598 2°56.094 3.8 343 9.5 101480 92
2006-11-27 07:30:03 51°13.598 2°56.094 3.2 351 9.5 101470 92
2006-11-27 07:30:08 51°13.598 2°56.093 2.8 354 9.5 101470 92
2006-11-27 07:30:13 51°13.598 2°56.093 3.6 342 9.5 101480 92
2006-11-27 07:30:18 51°13.598 2°56.093 3 347 9.5 101480 92
2006-11-27 07:30:23 51°13.598 2°56.093 4.2 351 9.5 101480 92
2006-11-27 07:30:28 51°13.598 2°56.093 3.5 344 9.5 101480 92
2006-11-27 07:30:33 51°13.598 2°56.093 3.9 342 9.5 101470 92
2006-11-27 07:30:38 51°13.598 2°56.093 3.8 352 9.5 101470 92
2006-11-27 07:30:43 51°13.598 2°56.093 2.6 280 9.5 101480 92
2006-11-27 07:30:48 51°13.598 2°56.092 2.4 350 9.5 101480 92
2006-11-27 07:30:53 51°13.598 2°56.092 2.5 350 9.5 101480 92
2006-11-27 07:30:58 51°13.597 2°56.092 2.4 347 9.5 101480 92
2006-11-27 07:31:03 51°13.597 2°56.092 4.1 287 9.5 101470 92
2006-11-27 07:31:08 51°13.597 2°56.092 3 351 9.5 101470 92
2006-11-27 07:31:13 51°13.597 2°56.092 4.1 281 9.5 101470 92
2006-11-27 07:31:18 51°13.597 2°56.092 3.6 351 9.5 101470 92
2006-11-27 07:31:23 51°13.597 2°56.092 3.7 346 9.5 101480 92
2006-11-27 07:31:28 51°13.597 2°56.093 4.2 351 9.5 101480 92
2006-11-27 07:31:33 51°13.597 2°56.092 2.8 351 9.5 101470 92
2006-11-27 07:31:38 51°13.597 2°56.092 3.3 343 9.5 101470 92
2006-11-27 07:31:43 51°13.597 2°56.092 2.8 340 9.5 101470 92
2006-11-27 07:31:48 51°13.597 2°56.092 2.1 344 9.5 101470 92
2006-11-27 07:31:53 51°13.597 2°56.092 2.4 335 9.5 101470 92
2006-11-27 07:31:58 51°13.596 2°56.093 3.1 334 9.5 101470 92
2006-11-27 07:32:03 51°13.596 2°56.093 2.9 280 9.5 101480 92
2006-11-27 07:32:08 51°13.596 2°56.093 3.5 343 9.5 101480 92
2006-11-27 07:32:13 51°13.596 2°56.093 2.1 350 9.5 101470 92
2006-11-27 07:32:18 51°13.596 2°56.093 2.3 5 9.5 101470 92
2006-11-27 07:32:23 51°13.596 2°56.093 2.6 352 9.5 101480 92
2006-11-27 07:32:28 51°13.596 2°56.092 2.6 344 9.5 101480 92
2006-11-27 07:32:33 51°13.596 2°56.092 2.4 333 9.5 101480 92
2006-11-27 07:32:38 51°13.596 2°56.092 2.2 353 9.5 101480 92
2006-11-27 07:32:43 51°13.596 2°56.092 2.5 348 9.5 101480 92
2006-11-27 07:32:48 51°13.596 2°56.092 2.6 340 9.5 101480 92
2006-11-27 07:32:53 51°13.596 2°56.092 3.3 339 9.5 101470 92
2006-11-27 07:32:58 51°13.596 2°56.092 2.5 350 9.5 101470 92
2006-11-27 07:33:03 51°13.596 2°56.092 2.9 349 9.5 101480 92
2006-11-27 07:33:08 51°13.596 2°56.092 2.7 347 9.5 101480 92
2006-11-27 07:33:13 51°13.596 2°56.092 2.6 280 9.6 101470 92
2006-11-27 07:33:18 51°13.596 2°56.092 3.6 350 9.6 101470 92
2006-11-27 07:33:23 51°13.596 2°56.092 3 280 9.5 101470 92
2006-11-27 07:33:28 51°13.596 2°56.092 2.6 344 9.5 101470 92
2006-11-27 07:33:33 51°13.596 2°56.092 2.8 279 9.5 101470 92
2006-11-27 07:33:38 51°13.596 2°56.092 2.7 350 9.5 101470 92
2006-11-27 07:33:43 51°13.596 2°56.092 2.6 353 9.6 101470 92
2006-11-27 07:33:48 51°13.596 2°56.092 3.1 344 9.6 101470 92
2006-11-27 07:33:53 51°13.596 2°56.092 3 348 9.6 101470 92
2006-11-27 07:33:58 51°13.596 2°56.092 2.7 359 9.6 101470 92
2006-11-27 07:34:03 51°13.596 2°56.091 2.5 347 9.6 101480 92
2006-11-27 07:34:08 51°13.596 2°56.092 2.2 359 9.6 101480 92
2006-11-27 07:34:13 51°13.596 2°56.091 2.4 9 9.6 101480 92
2006-11-27 07:34:18 51°13.596 2°56.092 2.5 358 9.6 101480 92
2006-11-27 07:34:23 51°13.596 2°56.092 2.6 350 9.6 101480 92
2006-11-27 07:34:28 51°13.596 2°56.092 2.8 354 9.6 101480 92
2006-11-27 07:34:33 51°13.596 2°56.092 3 352 9.6 101480 92
2006-11-27 07:34:38 51°13.596 2°56.092 2.2 350 9.6 101480 92
2006-11-27 07:34:43 51°13.597 2°56.092 2.1 359 9.6 101480 92
2006-11-27 07:34:48 51°13.597 2°56.092 2.4 338 9.6 101480 92
2006-11-27 07:34:53 51°13.597 2°56.092 2.7 327 9.6 101480 92
2006-11-27 07:34:58 51°13.597 2°56.092 3 339 9.6 101480 92
2006-11-27 07:35:03 51°13.597 2°56.091 4.2 281 9.6 101480 92
2006-11-27 07:35:08 51°13.597 2°56.092 3.3 353 9.6 101480 92
2006-11-27 07:35:13 51°13.597 2°56.092 3.7 350 9.6 101470 92
2006-11-27 07:35:18 51°13.597 2°56.092 3.3 341 9.6 101470 92
2006-11-27 07:35:23 51°13.597 2°56.092 3.3 1 9.6 101480 92
2006-11-27 07:35:28 51°13.597 2°56.092 2.7 348 9.6 101480 92
2006-11-27 07:35:33 51°13.597 2°56.092 2.7 280 9.6 101480 92
2006-11-27 07:35:38 51°13.597 2°56.092 3.1 348 9.6 101480 92
2006-11-27 07:35:43 51°13.597 2°56.092 3.5 354 9.6 101480 92
2006-11-27 07:35:48 51°13.597 2°56.092 2.7 343 9.6 101480 92
2006-11-27 07:35:53 51°13.597 2°56.092 2.5 356 9.6 101480 92
2006-11-27 07:35:58 51°13.597 2°56.092 2.7 346 9.6 101480 92
2006-11-27 07:36:03 51°13.597 2°56.092 2.8 354 9.6 101480 92
2006-11-27 07:36:08 51°13.597 2°56.092 3.1 333 9.6 101480 92
2006-11-27 07:36:13 51°13.597 2°56.092 3.3 279 9.6 101470 92
2006-11-27 07:36:18 51°13.596 2°56.092 3.4 343 9.6 101470 92
2006-11-27 07:36:23 51°13.596 2°56.093 3.6 355 9.6 101470 92
2006-11-27 07:36:28 51°13.596 2°56.093 3.6 1 9.6 101470 92
2006-11-27 07:36:33 51°13.596 2°56.093 3.4 282 9.6 101480 92
2006-11-27 07:36:38 51°13.597 2°56.093 3 342 9.6 101480 92
2006-11-27 07:36:43 51°13.597 2°56.093 2.3 358 9.6 101480 92
2006-11-27 07:36:48 51°13.597 2°56.093 3 350 9.6 101480 92
2006-11-27 07:36:53 51°13.597 2°56.093 2.8 349 9.6 101480 92
2006-11-27 07:36:58 51°13.597 2°56.093 3 355 9.6 101480 92
2006-11-27 07:37:03 51°13.597 2°56.093 3.1 286 9.6 101480 92
2006-11-27 07:37:08 51°13.597 2°56.093 2.4 358 9.6 101480 92
2006-11-27 07:37:13 51°13.597 2°56.093 3 354 9.6 101480 92
2006-11-27 07:37:18 51°13.597 2°56.093 3 358 9.6 101480 92
2006-11-27 07:37:23 51°13.597 2°56.093 3.5 357 9.6 101480 92
2006-11-27 07:37:28 51°13.597 2°56.093 3 346 9.6 101480 92
2006-11-27 07:37:33 51°13.597 2°56.093 2.7 350 9.6 101480 92
2006-11-27 07:37:38 51°13.597 2°56.093 3.1 336 9.6 101480 92
2006-11-27 07:37:43 51°13.597 2°56.093 3.2 328 9.6 101480 92
2006-11-27 07:37:48 51°13.597 2°56.093 2.3 353 9.6 101480 92
2006-11-27 07:37:53 51°13.597 2°56.093 3 355 9.6 101480 92
2006-11-27 07:37:58 51°13.597 2°56.093 2.7 347 9.6 101480 92
2006-11-27 07:38:03 51°13.597 2°56.093 2.7 344 9.6 101480 92
2006-11-27 07:38:08 51°13.597 2°56.093 1.9 346 9.6 101480 92
2006-11-27 07:38:13 51°13.597 2°56.093 3.4 281 9.6 101480 92
2006-11-27 07:38:18 51°13.597 2°56.093 3.7 343 9.6 101480 92
2006-11-27 07:38:23 51°13.597 2°56.092 3.4 344 9.6 101470 92
2006-11-27 07:38:28 51°13.597 2°56.092 3.4 354 9.6 101470 92
2006-11-27 07:38:33 51°13.597 2°56.092 3.6 353 9.6 101470 92
2006-11-27 07:38:38 51°13.597 2°56.092 2.2 348 9.6 101470 92
2006-11-27 07:38:43 51°13.597 2°56.092 3.4 344 9.6 101480 92
2006-11-27 07:38:48 51°13.597 2°56.092 3.8 351 9.6 101480 92
2006-11-27 07:38:53 51°13.597 2°56.092 3.7 349 9.6 101480 92
2006-11-27 07:38:58 51°13.597 2°56.092 3 349 9.6 101480 92
2006-11-27 07:39:03 51°13.597 2°56.092 2.4 357 9.6 101480 92
2006-11-27 07:39:08 51°13.597 2°56.093 2.5 353 9.6 101480 92
2006-11-27 07:39:13 51°13.597 2°56.093 2.5 348 9.6 101470 92
2006-11-27 07:39:18 51°13.597 2°56.093 3 349 9.6 101470 92
2006-11-27 07:39:23 51°13.597 2°56.093 2.3 350 9.6 101470 92
2006-11-27 07:39:28 51°13.597 2°56.093 3.8 348 9.6 101470 92
2006-11-27 07:39:33 51°13.597 2°56.093 4.1 350 9.6 101480 92
2006-11-27 07:39:38 51°13.597 2°56.093 2.5 347 9.6 101480 92
2006-11-27 07:39:43 51°13.598 2°56.093 3 281 9.6 101480 92
2006-11-27 07:39:48 51°13.598 2°56.094 3 351 9.6 101480 92
2006-11-27 07:39:53 51°13.598 2°56.094 2.7 351 9.6 101480 92
2006-11-27 07:39:58 51°13.598 2°56.094 3.4 350 9.6 101480 92
2006-11-27 07:40:03 51°13.598 2°56.094 2.8 -999 9.6 101480 92
2006-11-27 07:40:08 51°13.597 2°56.093 2.5 347 9.6 101480 92
2006-11-27 07:40:13 51°13.597 2°56.093 4.2 360 9.6 101480 92
2006-11-27 07:40:18 51°13.597 2°56.093 3.4 353 9.6 101480 92
2006-11-27 07:40:23 51°13.598 2°56.093 3.9 353 9.6 101480 92
2006-11-27 07:40:28 51°13.598 2°56.094 3.3 351 9.6 101480 92
2006-11-27 07:40:33 51°13.598 2°56.094 3.4 356 9.6 101480 92
2006-11-27 07:40:38 51°13.598 2°56.094 4.9 352 9.6 101480 92
2006-11-27 07:40:43 51°13.598 2°56.094 4.3 3 9.6 101480 92
2006-11-27 07:40:48 51°13.598 2°56.094 2.8 352 9.6 101480 92
2006-11-27 07:40:53 51°13.598 2°56.094 3.6 354 9.6 101480 92
2006-11-27 07:40:58 51°13.598 2°56.094 4.1 2 9.6 101480 92
2006-11-27 07:41:03 51°13.599 2°56.094 3.1 347 9.6 101480 92
2006-11-27 07:41:08 51°13.598 2°56.094 2.5 358 9.6 101480 92
2006-11-27 07:41:13 51°13.598 2°56.094 3.1 359 9.6 101480 92
2006-11-27 07:41:18 51°13.598 2°56.094 2.4 347 9.6 101480 92
2006-11-27 07:41:23 51°13.598 2°56.094 2.5 355 9.6 101480 92
2006-11-27 07:41:28 51°13.598 2°56.094 2.6 351 9.6 101480 92
2006-11-27 07:41:33 51°13.598 2°56.094 2.6 354 9.6 101480 92
2006-11-27 07:41:38 51°13.598 2°56.094 3.3 352 9.6 101480 92
2006-11-27 07:41:43 51°13.598 2°56.094 3.5 351 9.6 101480 92
2006-11-27 07:41:48 51°13.598 2°56.094 4.1 350 9.6 101480 92
2006-11-27 07:41:53 51°13.598 2°56.094 4.5 356 9.6 101480 92
2006-11-27 07:41:58 51°13.598 2°56.095 3.4 1 9.6 101480 92
2006-11-27 07:42:03 51°13.598 2°56.095 2.3 3 9.6 101480 92
2006-11-27 07:42:08 51°13.598 2°56.095 2.8 349 9.6 101480 92
2006-11-27 07:42:13 51°13.598 2°56.095 2.7 348 9.6 101480 92
2006-11-27 07:42:18 51°13.598 2°56.095 1.9 337 9.6 101480 92
2006-11-27 07:42:23 51°13.598 2°56.095 1.5 281 9.6 101480 92
2006-11-27 07:42:28 51°13.598 2°56.095 2 346 9.6 101480 92
2006-11-27 07:42:33 51°13.598 2°56.095 3.8 348 9.6 101480 92
2006-11-27 07:42:38 51°13.598 2°56.095 3.9 347 9.6 101480 92
2006-11-27 07:42:43 51°13.598 2°56.095 3.5 350 9.6 101490 92
2006-11-27 07:42:48 51°13.598 2°56.095 3.9 351 9.6 101490 92
2006-11-27 07:42:53 51°13.598 2°56.095 3.1 349 9.6 101480 92
2006-11-27 07:42:58 51°13.598 2°56.095 2.9 347 9.6 101480 92
2006-11-27 07:43:03 51°13.598 2°56.095 3.1 280 9.6 101480 92
2006-11-27 07:43:08 51°13.598 2°56.095 3.4 350 9.6 101480 92
2006-11-27 07:43:13 51°13.598 2°56.095 3.6 352 9.6 101480 92
2006-11-27 07:43:18 51°13.598 2°56.095 3.3 356 9.6 101480 92
2006-11-27 07:43:23 51°13.598 2°56.095 3 349 9.6 101480 92
2006-11-27 07:43:28 51°13.598 2°56.095 3.6 354 9.6 101480 92
2006-11-27 07:43:33 51°13.598 2°56.095 2.9 6 9.6 101480 92
2006-11-27 07:43:38 51°13.598 2°56.095 3 350 9.6 101480 92
2006-11-27 07:43:43 51°13.598 2°56.095 3.1 348 9.6 101480 92
2006-11-27 07:43:48 51°13.598 2°56.095 1.7 351 9.6 101480 92
2006-11-27 07:43:53 51°13.598 2°56.095 2 349 9.6 101480 92
2006-11-27 07:43:58 51°13.598 2°56.095 2.8 334 9.6 101480 92
2006-11-27 07:44:03 51°13.598 2°56.095 3.2 353 9.6 101490 92
2006-11-27 07:44:08 51°13.598 2°56.095 3 340 9.6 101490 92
2006-11-27 07:44:13 51°13.598 2°56.095 3.2 350 9.6 101480 92
2006-11-27 07:44:18 51°13.598 2°56.095 3.3 354 9.6 101480 92
2006-11-27 07:44:23 51°13.599 2°56.095 3.3 281 9.6 101480 92
2006-11-27 07:44:28 51°13.599 2°56.095 4.9 349 9.6 101480 92
2006-11-27 07:44:33 51°13.599 2°56.095 3.7 351 9.6 101480 92
2006-11-27 07:44:38 51°13.599 2°56.096 4.1 354 9.6 101480 92
2006-11-27 07:44:43 51°13.599 2°56.096 3.3 354 9.6 101480 92
2006-11-27 07:44:48 51°13.599 2°56.095 3.5 336 9.6 101480 92
2006-11-27 07:44:53 51°13.599 2°56.095 3.5 336 9.6 101480 92
2006-11-27 07:44:58 51°13.599 2°56.095 3.4 350 9.6 101480 92
2006-11-27 07:45:03 51°13.599 2°56.095 3.8 353 9.6 101480 92
2006-11-27 07:45:08 51°13.599 2°56.094 3.2 343 9.6 101480 92
2006-11-27 07:45:13 51°13.599 2°56.094 4 354 9.6 101480 92
2006-11-27 07:45:18 51°13.599 2°56.094 4.1 355 9.6 101480 92
2006-11-27 07:45:23 51°13.599 2°56.094 2.9 352 9.6 101480 92
2006-11-27 07:45:28 51°13.599 2°56.094 3 349 9.6 101480 92
2006-11-27 07:45:33 51°13.599 2°56.094 4.3 354 9.6 101490 92
2006-11-27 07:45:38 51°13.599 2°56.095 3.5 355 9.6 101490 92
2006-11-27 07:45:43 51°13.599 2°56.095 3.7 357 9.6 101480 92
2006-11-27 07:45:48 51°13.599 2°56.095 3.3 6 9.6 101480 92
2006-11-27 07:45:53 51°13.599 2°56.094 3.6 349 9.6 101480 92
2006-11-27 07:45:58 51°13.598 2°56.094 4.2 357 9.6 101480 92
2006-11-27 07:46:03 51°13.598 2°56.094 4.9 343 9.6 101490 92
2006-11-27 07:46:08 51°13.598 2°56.094 3 348 9.6 101490 92
2006-11-27 07:46:13 51°13.598 2°56.094 3.8 347 9.7 101490 92
2006-11-27 07:46:18 51°13.598 2°56.094 3.5 345 9.7 101490 92
2006-11-27 07:46:23 51°13.598 2°56.094 3.5 282 9.7 101480 92
2006-11-27 07:46:28 51°13.598 2°56.094 3.2 347 9.7 101480 92
2006-11-27 07:46:33 51°13.598 2°56.094 3.8 347 9.7 101480 92
2006-11-27 07:46:38 51°13.598 2°56.094 3.5 354 9.7 101480 92
2006-11-27 07:46:43 51°13.599 2°56.094 2.9 350 9.7 101480 92
2006-11-27 07:46:48 51°13.599 2°56.094 3.9 344 9.7 101480 92
2006-11-27 07:46:53 51°13.599 2°56.094 3.5 331 9.7 101480 92
2006-11-27 07:46:58 51°13.599 2°56.094 2.7 339 9.7 101480 92
2006-11-27 07:47:03 51°13.599 2°56.094 5.3 347 9.7 101480 92
2006-11-27 07:47:08 51°13.599 2°56.094 4.4 356 9.7 101480 92
2006-11-27 07:47:13 51°13.599 2°56.094 3.7 353 9.7 101490 91
2006-11-27 07:47:18 51°13.599 2°56.094 3.6 348 9.7 101490 91
2006-11-27 07:47:23 51°13.599 2°56.094 3.2 345 9.7 101490 91
2006-11-27 07:47:28 51°13.599 2°56.094 3.2 350 9.7 101490 91
2006-11-27 07:47:33 51°13.599 2°56.094 2.9 348 9.7 101480 91
2006-11-27 07:47:38 51°13.599 2°56.094 2.6 347 9.7 101480 91
2006-11-27 07:47:43 51°13.599 2°56.094 5.7 280 9.7 101480 91
2006-11-27 07:47:48 51°13.599 2°56.094 5.4 348 9.7 101480 91
2006-11-27 07:47:53 51°13.599 2°56.094 5.8 350 9.7 101480 91
2006-11-27 07:47:58 51°13.599 2°56.094 4.6 1 9.7 101480 91
2006-11-27 07:48:03 51°13.599 2°56.094 4.5 354 9.7 101480 91
2006-11-27 07:48:08 51°13.599 2°56.094 4.3 333 9.7 101480 91
2006-11-27 07:48:13 51°13.599 2°56.094 5.6 355 9.7 101480 91
2006-11-27 07:48:18 51°13.599 2°56.094 2.6 353 9.7 101480 91
2006-11-27 07:48:23 51°13.599 2°56.094 3.2 4 9.7 101480 91
2006-11-27 07:48:28 51°13.599 2°56.094 3.9 351 9.7 101480 91
2006-11-27 07:48:33 51°13.599 2°56.094 4.3 354 9.7 101480 91
2006-11-27 07:48:38 51°13.599 2°56.094 2.9 349 9.7 101480 91
2006-11-27 07:48:43 51°13.599 2°56.094 4 349 9.7 101480 91
2006-11-27 07:48:48 51°13.599 2°56.095 4 340 9.7 101480 91
2006-11-27 07:48:53 51°13.599 2°56.095 4 350 9.7 101490 91
2006-11-27 07:48:58 51°13.599 2°56.095 3.4 354 9.7 101490 91
2006-11-27 07:49:03 51°13.599 2°56.095 5.3 352 9.7 101480 91
2006-11-27 07:49:08 51°13.599 2°56.095 4.8 354 9.7 101480 91
2006-11-27 07:49:13 51°13.599 2°56.095 4 283 9.7 101480 91
2006-11-27 07:49:18 51°13.599 2°56.095 4.5 355 9.7 101480 91
2006-11-27 07:49:23 51°13.599 2°56.095 3.2 281 9.8 101490 91
2006-11-27 07:49:28 51°13.599 2°56.095 3.9 359 9.8 101490 91
2006-11-27 07:49:33 51°13.599 2°56.095 3.8 346 9.8 101490 91
2006-11-27 07:49:38 51°13.599 2°56.095 5.9 355 9.8 101490 91
2006-11-27 07:49:43 51°13.599 2°56.095 5.4 354 9.8 101480 91
2006-11-27 07:49:48 51°13.599 2°56.095 4.9 2 9.8 101480 91
2006-11-27 07:49:53 51°13.599 2°56.095 4 9 9.8 101490 91
2006-11-27 07:49:58 51°13.599 2°56.095 4.5 344 9.8 101490 91
2006-11-27 07:50:03 51°13.599 2°56.095 3.5 7 9.8 101490 91
2006-11-27 07:50:08 51°13.599 2°56.095 3.9 360 9.8 101490 91
2006-11-27 07:50:13 51°13.599 2°56.095 2.8 350 9.8 101490 91
2006-11-27 07:50:18 51°13.599 2°56.095 3.5 351 9.8 101490 91
2006-11-27 07:50:23 51°13.599 2°56.095 5.5 359 9.8 101480 91
2006-11-27 07:50:28 51°13.599 2°56.095 5.2 358 9.8 101480 91
2006-11-27 07:50:33 51°13.599 2°56.095 4.3 353 9.8 101490 91
2006-11-27 07:50:38 51°13.599 2°56.095 3.6 351 9.8 101490 91
2006-11-27 07:50:43 51°13.599 2°56.095 5.1 357 9.8 101490 91
2006-11-27 07:50:48 51°13.599 2°56.095 4.8 342 9.8 101490 91
2006-11-27 07:50:53 51°13.599 2°56.095 3.6 351 9.8 101490 91
2006-11-27 07:50:58 51°13.599 2°56.095 4.3 359 9.8 101490 91
2006-11-27 07:51:03 51°13.599 2°56.095 2.4 281 9.8 101490 91
2006-11-27 07:51:08 51°13.599 2°56.095 2.5 348 9.8 101490 91
2006-11-27 07:51:13 51°13.599 2°56.095 3.1 350 9.8 101490 91
2006-11-27 07:51:18 51°13.599 2°56.094 3.3 351 9.8 101490 91
2006-11-27 07:51:23 51°13.599 2°56.094 2.8 284 9.8 101490 91
2006-11-27 07:51:28 51°13.599 2°56.094 3 345 9.8 101490 91
2006-11-27 07:51:33 51°13.599 2°56.094 4 279 9.8 101490 91
2006-11-27 07:51:38 51°13.598 2°56.094 3.9 346 9.8 101490 91
2006-11-27 07:51:43 51°13.598 2°56.093 3.1 350 9.8 101490 91
2006-11-27 07:51:48 51°13.598 2°56.093 3.6 348 9.8 101490 91
2006-11-27 07:51:53 51°13.598 2°56.093 4.1 3 9.8 101490 91
2006-11-27 07:51:58 51°13.598 2°56.093 2.8 346 9.8 101490 91
2006-11-27 07:52:03 51°13.598 2°56.093 2.9 341 9.8 101490 91
2006-11-27 07:52:08 51°13.598 2°56.093 3.1 -999 9.8 101490 91
2006-11-27 07:52:13 51°13.598 2°56.093 3.1 351 9.8 101490 91
2006-11-27 07:52:18 51°13.598 2°56.093 3.1 348 9.8 101490 91
2006-11-27 07:52:23 51°13.598 2°56.093 3.3 345 9.8 101490 91
2006-11-27 07:52:28 51°13.598 2°56.093 3.7 348 9.8 101490 91
2006-11-27 07:52:33 51°13.598 2°56.093 3.3 354 9.8 101490 91
2006-11-27 07:52:38 51°13.598 2°56.093 3.7 355 9.8 101490 91
2006-11-27 07:52:43 51°13.599 2°56.093 3.6 352 9.9 101490 91
2006-11-27 07:52:48 51°13.599 2°56.093 4.3 346 9.9 101490 91
2006-11-27 07:52:53 51°13.599 2°56.093 3.4 353 9.8 101490 91
2006-11-27 07:52:58 51°13.599 2°56.093 3.8 350 9.8 101490 91
2006-11-27 07:53:03 51°13.599 2°56.093 3.8 355 9.8 101490 91
2006-11-27 07:53:08 51°13.599 2°56.094 4.1 348 9.8 101490 91
2006-11-27 07:53:13 51°13.599 2°56.094 4 349 9.9 101490 91
2006-11-27 07:53:18 51°13.599 2°56.094 4.6 348 9.9 101490 91
2006-11-27 07:53:23 51°13.599 2°56.094 4.2 -999 9.9 101490 91
2006-11-27 07:53:28 51°13.599 2°56.094 3.5 356 9.9 101490 91
2006-11-27 07:53:33 51°13.599 2°56.094 3.4 354 9.9 101490 91
2006-11-27 07:53:38 51°13.599 2°56.094 4.7 354 9.9 101490 91
2006-11-27 07:53:43 51°13.599 2°56.094 3.8 357 9.8 101490 91
2006-11-27 07:53:48 51°13.599 2°56.094 4.1 345 9.8 101490 91
2006-11-27 07:53:53 51°13.599 2°56.094 4.3 343 9.9 101490 91
2006-11-27 07:53:58 51°13.599 2°56.094 4.7 352 9.9 101490 91
2006-11-27 07:54:03 51°13.599 2°56.095 5 349 9.8 101490 91
2006-11-27 07:54:08 51°13.599 2°56.095 5.8 356 9.8 101490 91
2006-11-27 07:54:13 51°13.599 2°56.095 4.5 354 9.9 101480 91
2006-11-27 07:54:18 51°13.599 2°56.095 4.7 355 9.9 101480 91
2006-11-27 07:54:23 51°13.599 2°56.095 4.2 352 9.9 101490 91
2006-11-27 07:54:28 51°13.599 2°56.095 3.5 345 9.9 101490 91
2006-11-27 07:54:33 51°13.599 2°56.095 2.6 350 9.9 101490 91
2006-11-27 07:54:38 51°13.599 2°56.095 3.3 353 9.9 101490 91
2006-11-27 07:54:43 51°13.599 2°56.095 3.8 285 9.9 101490 91
2006-11-27 07:54:48 51°13.599 2°56.095 2.7 346 9.9 101490 91
2006-11-27 07:54:53 51°13.599 2°56.095 3 355 9.9 101490 91
2006-11-27 07:54:58 51°13.599 2°56.095 2.8 346 9.9 101490 91
2006-11-27 07:55:03 51°13.599 2°56.095 3.1 348 9.9 101490 90
2006-11-27 07:55:08 51°13.599 2°56.095 3.4 334 9.9 101490 90
2006-11-27 07:55:13 51°13.599 2°56.095 4.4 341 9.9 101490 90
2006-11-27 07:55:18 51°13.599 2°56.095 3.6 355 9.9 101490 90
2006-11-27 07:55:23 51°13.599 2°56.095 3.6 351 9.9 101490 90
2006-11-27 07:55:28 51°13.599 2°56.096 3.6 346 9.9 101490 90
2006-11-27 07:55:33 51°13.598 2°56.095 4.1 349 9.9 101490 90
2006-11-27 07:55:38 51°13.598 2°56.095 3.1 345 9.9 101490 90
2006-11-27 07:55:43 51°13.598 2°56.095 3.9 342 9.9 101490 90
2006-11-27 07:55:48 51°13.598 2°56.095 4.4 346 9.9 101490 90
2006-11-27 07:55:53 51°13.599 2°56.095 3.4 347 9.9 101490 90
2006-11-27 07:55:58 51°13.598 2°56.095 3.6 347 9.9 101490 90
2006-11-27 07:56:03 51°13.598 2°56.095 3.3 338 9.9 101490 90
2006-11-27 07:56:08 51°13.599 2°56.095 2.9 347 9.9 101490 90
2006-11-27 07:56:13 51°13.599 2°56.095 3.8 347 9.9 101490 90
2006-11-27 07:56:18 51°13.598 2°56.095 4.4 351 9.9 101490 90
2006-11-27 07:56:23 51°13.598 2°56.095 4 354 9.9 101490 90
2006-11-27 07:56:28 51°13.599 2°56.095 3.8 350 9.9 101490 90
2006-11-27 07:56:33 51°13.599 2°56.095 4.4 354 9.9 101490 90
2006-11-27 07:56:38 51°13.599 2°56.095 3.9 349 9.9 101490 90
2006-11-27 07:56:43 51°13.599 2°56.095 4.9 352 9.9 101500 90
2006-11-27 07:56:48 51°13.599 2°56.095 4.7 353 9.9 101500 90
2006-11-27 07:56:53 51°13.599 2°56.095 4.2 359 9.9 101490 90
2006-11-27 07:56:58 51°13.599 2°56.095 3.8 358 9.9 101490 90
2006-11-27 07:57:03 51°13.599 2°56.095 4.1 360 9.9 101490 90
2006-11-27 07:57:08 51°13.599 2°56.095 5 351 9.9 101490 90
2006-11-27 07:57:13 51°13.598 2°56.095 5.1 349 9.9 101490 90
2006-11-27 07:57:18 51°13.598 2°56.095 4.6 347 9.9 101490 90
2006-11-27 07:57:23 51°13.598 2°56.095 4.8 355 9.9 101490 90
2006-11-27 07:57:28 51°13.598 2°56.095 4.3 347 9.9 101490 90
2006-11-27 07:57:33 51°13.598 2°56.095 4.2 352 9.9 101490 90
2006-11-27 07:57:38 51°13.598 2°56.095 4.8 351 9.9 101490 90
2006-11-27 07:57:43 51°13.598 2°56.095 4.5 349 10 101490 90
2006-11-27 07:57:48 51°13.598 2°56.095 4.2 352 10 101490 90
2006-11-27 07:57:53 51°13.598 2°56.095 3.2 344 9.9 101490 90
2006-11-27 07:57:58 51°13.598 2°56.095 4.1 346 9.9 101490 90
2006-11-27 07:58:03 51°13.598 2°56.095 3.6 358 10 101490 90
2006-11-27 07:58:08 51°13.598 2°56.095 3.2 1 10 101490 90
2006-11-27 07:58:13 51°13.598 2°56.095 3 350 9.9 101490 90
2006-11-27 07:58:18 51°13.598 2°56.095 3.5 356 9.9 101490 90
2006-11-27 07:58:23 51°13.598 2°56.095 3.6 350 10 101490 90
2006-11-27 07:58:28 51°13.598 2°56.095 3.5 350 10 101490 90
2006-11-27 07:58:33 51°13.598 2°56.095 3.7 338 9.9 101500 90
2006-11-27 07:58:38 51°13.598 2°56.095 4.1 358 9.9 101500 90
2006-11-27 07:58:43 51°13.598 2°56.095 3.8 353 10 101500 90
2006-11-27 07:58:48 51°13.598 2°56.095 2.5 338 10 101500 90
2006-11-27 07:58:53 51°13.598 2°56.096 2.9 340 10 101500 90
2006-11-27 07:58:58 51°13.598 2°56.095 3.7 340 10 101500 90
2006-11-27 07:59:03 51°13.598 2°56.095 3.8 334 10 101490 90
2006-11-27 07:59:08 51°13.598 2°56.095 4.1 -999 10 101490 90
2006-11-27 07:59:13 51°13.598 2°56.095 4.1 -999 10 101490 90
2006-11-27 07:59:18 51°13.598 2°56.095 4.1 -999 10 101490 90
2006-11-27 07:59:23 51°13.598 2°56.095 4.1 -999 10 101490 90
2006-11-27 07:59:28 51°13.598 2°56.095 4.1 -999 10 101490 90
2006-11-27 07:59:33 51°13.598 2°56.095 4.1 -999 -999 -999 -999
2006-11-27 07:59:38 51°13.598 2°56.095 -999 -999 -999 -999 -999
2006-11-27 07:59:43 51°13.598 2°56.095 -999 -999 -999 -999 -999
2006-11-27 07:59:47 51°13.598 2°56.095 -999 -999 -999 -999 -999
2006-11-27 07:59:51 51°13.598 2°56.095 -999 358 -999 -999 -999
2006-11-27 07:59:54 51°13.598 2°56.095 3.5 337 -999 -999 -999
2006-11-27 07:59:59 51°13.598 2°56.095 3.6 355 -999 -999 -999
2006-11-27 08:00:03 51°13.598 2°56.095 3.2 347 -999 -999 -999
2006-11-27 08:00:08 51°13.598 2°56.095 3.9 284 10 -999 89
2006-11-27 08:00:14 51°13.598 2°56.095 3.1 345 10 -999 89
2006-11-27 08:00:19 51°13.598 2°56.095 3.3 348 10 -999 90
2006-11-27 08:00:24 51°13.598 2°56.095 4.1 338 10 -999 90
2006-11-27 08:00:29 51°13.598 2°56.095 3.2 281 10 101490 90
2006-11-27 08:00:35 51°13.598 2°56.096 3.9 342 10 101490 90
2006-11-27 08:00:39 51°13.598 2°56.095 3.6 351 10 101500 90
2006-11-27 08:00:43 51°13.598 2°56.095 4.7 346 10 101500 90
2006-11-27 08:00:49 51°13.598 2°56.095 4.4 346 10 101500 90
2006-11-27 08:00:55 51°13.598 2°56.095 3.8 349 10 101500 90
2006-11-27 08:00:59 51°13.598 2°56.095 4.6 349 10 101490 90
2006-11-27 08:01:04 51°13.598 2°56.095 4.3 344 10 101490 90
2006-11-27 08:01:09 51°13.598 2°56.095 3.3 283 10 101490 90
2006-11-27 08:01:14 51°13.598 2°56.095 5.6 341 10 101490 90
2006-11-27 08:01:19 51°13.598 2°56.095 4.6 281 10 101490 90
2006-11-27 08:01:24 51°13.598 2°56.095 4.7 349 10 101490 90
2006-11-27 08:01:29 51°13.598 2°56.095 4.4 350 10 101490 90
2006-11-27 08:01:34 51°13.598 2°56.095 4.7 344 10 101490 90
2006-11-27 08:01:39 51°13.598 2°56.095 3.9 279 10.1 101490 90
2006-11-27 08:01:45 51°13.598 2°56.095 4.1 352 10.1 101490 90
2006-11-27 08:01:49 51°13.598 2°56.095 3.6 347 10 101490 90
2006-11-27 08:01:55 51°13.598 2°56.095 4.2 348 10 101490 90
2006-11-27 08:01:59 51°13.598 2°56.095 5.2 350 10 101490 90
2006-11-27 08:02:04 51°13.598 2°56.095 4.3 3 10 101490 90
2006-11-27 08:02:09 51°13.598 2°56.095 3.4 281 10.1 101490 90
2006-11-27 08:02:14 51°13.598 2°56.095 4.9 345 10.1 101490 90
2006-11-27 08:02:19 51°13.598 2°56.095 4.3 355 10 101490 90
2006-11-27 08:02:24 51°13.599 2°56.096 4.1 348 10 101490 90
2006-11-27 08:02:29 51°13.599 2°56.096 4.4 285 10.1 101490 90
2006-11-27 08:02:34 51°13.599 2°56.096 4.5 349 10.1 101490 90
2006-11-27 08:02:39 51°13.599 2°56.095 3.9 358 10.1 101490 90
2006-11-27 08:02:44 51°13.598 2°56.095 4 342 10.1 101490 90
2006-11-27 08:02:49 51°13.598 2°56.095 4.1 349 10.1 101490 90
2006-11-27 08:02:54 51°13.598 2°56.095 3.9 342 10.1 101490 90
2006-11-27 08:02:59 51°13.598 2°56.095 4.6 344 10.1 101490 90
2006-11-27 08:03:04 51°13.598 2°56.095 4.6 351 10.1 101490 90
2006-11-27 08:03:09 51°13.598 2°56.095 3.8 353 10.1 101490 90
2006-11-27 08:03:14 51°13.598 2°56.095 4.1 347 10.1 101490 90
2006-11-27 08:03:19 51°13.599 2°56.095 4.2 282 10.1 101490 90
2006-11-27 08:03:24 51°13.599 2°56.095 5.9 344 10.1 101490 90
2006-11-27 08:03:29 51°13.599 2°56.095 5.8 352 10.1 101490 90
2006-11-27 08:03:34 51°13.599 2°56.095 4.8 2 10.1 101490 90
2006-11-27 08:03:39 51°13.599 2°56.095 4 279 10.1 101490 89
2006-11-27 08:03:44 51°13.599 2°56.095 4.8 341 10.1 101490 89
2006-11-27 08:03:49 51°13.599 2°56.095 4.9 342 10.1 101490 89
2006-11-27 08:03:54 51°13.599 2°56.095 3.9 352 10.1 101490 89
2006-11-27 08:03:59 51°13.599 2°56.095 4.4 359 10.1 101490 89
2006-11-27 08:04:03 51°13.599 2°56.095 4 344 10.1 101490 89
2006-11-27 08:04:09 51°13.599 2°56.095 2.9 284 10.1 101490 89
2006-11-27 08:04:15 51°13.599 2°56.095 3.9 337 10.1 101490 89
2006-11-27 08:04:19 51°13.599 2°56.095 4.5 286 10.1 101490 89
2006-11-27 08:04:23 51°13.599 2°56.095 4.8 338 10.1 101490 89
2006-11-27 08:04:29 51°13.599 2°56.096 4.3 279 10.1 101490 89
2006-11-27 08:04:34 51°13.599 2°56.096 3.8 350 10.1 101490 89
2006-11-27 08:04:39 51°13.599 2°56.096 3.7 354 10.1 101490 89
2006-11-27 08:04:45 51°13.599 2°56.096 3.1 351 10.1 101490 89
2006-11-27 08:04:49 51°13.599 2°56.095 3.3 337 10.1 101490 89
2006-11-27 08:04:54 51°13.599 2°56.095 2.3 344 10.1 101490 89
2006-11-27 08:04:59 51°13.599 2°56.096 4.8 280 10.1 101490 89
2006-11-27 08:05:04 51°13.599 2°56.096 5.5 344 10.1 101490 89
2006-11-27 08:05:09 51°13.599 2°56.096 3.9 344 10.1 101490 89
2006-11-27 08:05:15 51°13.6 2°56.097 4.5 348 10.1 101490 89
2006-11-27 08:05:19 51°13.6 2°56.098 4.7 357 10.1 101490 89
2006-11-27 08:05:24 51°13.6 2°56.097 4.4 345 10.1 101490 89
2006-11-27 08:05:29 51°13.6 2°56.098 5.9 281 10.1 101490 89
2006-11-27 08:05:34 51°13.6 2°56.098 5.1 348 10.1 101490 89
2006-11-27 08:05:39 51°13.601 2°56.099 5.6 348 10.1 101490 89
2006-11-27 08:05:44 51°13.601 2°56.099 5 360 10.1 101490 89
2006-11-27 08:05:49 51°13.601 2°56.099 3.5 281 10.2 101490 89
2006-11-27 08:05:55 51°13.601 2°56.099 5.7 350 10.2 101490 89
2006-11-27 08:05:59 51°13.601 2°56.098 4.2 350 10.2 101490 89
2006-11-27 08:06:05 51°13.6 2°56.098 5 346 10.2 101490 89
2006-11-27 08:06:09 51°13.6 2°56.098 4.5 352 10.2 101490 89
2006-11-27 08:06:14 51°13.6 2°56.098 4 352 10.2 101490 89
2006-11-27 08:06:19 51°13.6 2°56.098 3.3 352 10.2 101490 89
2006-11-27 08:06:23 51°13.6 2°56.097 3.2 334 10.2 101490 89
2006-11-27 08:06:29 51°13.6 2°56.097 3.5 281 10.2 101490 89
2006-11-27 08:06:35 51°13.6 2°56.097 3.2 345 10.2 101490 89
2006-11-27 08:06:39 51°13.6 2°56.097 2.7 356 10.2 101490 89
2006-11-27 08:06:45 51°13.6 2°56.097 3 352 10.2 101490 89
2006-11-27 08:06:50 51°13.599 2°56.096 3.5 345 10.2 101490 89
2006-11-27 08:06:55 51°13.599 2°56.096 4.6 343 10.2 101490 89
2006-11-27 08:06:59 51°13.599 2°56.096 6.1 282 10.2 101490 89
2006-11-27 08:07:05 51°13.599 2°56.096 5.6 357 10.2 101490 89
2006-11-27 08:07:09 51°13.599 2°56.096 4.9 282 10.2 101500 89
2006-11-27 08:07:15 51°13.599 2°56.096 5.6 332 10.2 101500 89
2006-11-27 08:07:19 51°13.599 2°56.095 5.5 354 10.2 101500 89
2006-11-27 08:07:25 51°13.599 2°56.095 6.6 351 10.2 101500 89
2006-11-27 08:07:29 51°13.599 2°56.095 6.2 348 10.2 101500 89
2006-11-27 08:07:35 51°13.599 2°56.094 5.2 350 10.2 101500 89
2006-11-27 08:07:39 51°13.598 2°56.095 4.9 357 10.2 101490 89
2006-11-27 08:07:44 51°13.597 2°56.095 5.5 352 10.2 101490 89
2006-11-27 08:07:49 51°13.597 2°56.095 6.2 359 10.2 101490 89
2006-11-27 08:07:54 51°13.599 2°56.095 3.7 347 10.2 101490 89
2006-11-27 08:07:59 51°13.599 2°56.095 3.9 279 10.2 101490 89
2006-11-27 08:08:04 51°13.599 2°56.095 4 355 10.2 101490 89
2006-11-27 08:08:09 51°13.599 2°56.095 3.5 354 10.2 101490 89
2006-11-27 08:08:14 51°13.599 2°56.095 4.8 355 10.2 101490 89
2006-11-27 08:08:19 51°13.599 2°56.095 2.8 3 10.2 101490 89
2006-11-27 08:08:24 51°13.599 2°56.095 3.4 358 10.2 101490 89
2006-11-27 08:08:29 51°13.601 2°56.095 3.9 280 10.2 101490 89
2006-11-27 08:08:34 51°13.601 2°56.095 5.5 348 10.2 101490 89
2006-11-27 08:08:39 51°13.6 2°56.095 5.2 282 10.2 101490 89
2006-11-27 08:08:43 51°13.6 2°56.095 5.1 349 10.2 101490 89
2006-11-27 08:08:49 51°13.6 2°56.095 5.1 354 10.2 101490 89
2006-11-27 08:08:55 51°13.6 2°56.095 5.6 356 10.2 101490 89
2006-11-27 08:09:00 51°13.6 2°56.095 5 352 10.2 101490 89
2006-11-27 08:09:04 51°13.6 2°56.095 3.6 351 10.2 101490 89
2006-11-27 08:09:09 51°13.601 2°56.095 3.5 356 10.2 101500 89
2006-11-27 08:09:14 51°13.601 2°56.095 3.8 343 10.2 101500 89
2006-11-27 08:09:19 51°13.601 2°56.096 4.7 348 10.2 101490 89
2006-11-27 08:09:24 51°13.601 2°56.096 4.1 347 10.2 101490 89
2006-11-27 08:09:29 51°13.6 2°56.096 4.8 353 10.2 101490 89
2006-11-27 08:09:34 51°13.6 2°56.095 4 356 10.2 101490 89
2006-11-27 08:09:39 51°13.6 2°56.095 4.5 283 10.2 101490 89
2006-11-27 08:09:43 51°13.6 2°56.095 4.5 344 10.2 101490 89
2006-11-27 08:09:50 51°13.6 2°56.095 4.6 353 10.2 101490 89
2006-11-27 08:09:55 51°13.6 2°56.095 3 336 10.2 101490 89
2006-11-27 08:09:59 51°13.6 2°56.095 4.4 286 10.2 101490 89
2006-11-27 08:10:04 51°13.6 2°56.095 3.5 349 10.2 101490 89
2006-11-27 08:10:09 51°13.6 2°56.095 3.3 282 10.2 101490 89
2006-11-27 08:10:14 51°13.6 2°56.095 4.2 350 10.2 101490 89
2006-11-27 08:10:19 51°13.6 2°56.095 3.5 280 10.2 101490 89
2006-11-27 08:10:23 51°13.6 2°56.095 3.7 348 10.2 101490 89
2006-11-27 08:10:29 51°13.599 2°56.094 3.3 347 10.2 101490 89
2006-11-27 08:10:34 51°13.599 2°56.094 3 340 10.2 101490 89
2006-11-27 08:10:39 51°13.599 2°56.094 3.4 352 10.2 101500 89
2006-11-27 08:10:43 51°13.599 2°56.094 2.8 347 10.2 101500 89
2006-11-27 08:10:49 51°13.599 2°56.094 2.3 333 10.2 101490 89
2006-11-27 08:10:54 51°13.599 2°56.094 2.7 340 10.2 101490 89
2006-11-27 08:10:59 51°13.599 2°56.094 3.1 280 10.2 101490 89
2006-11-27 08:11:05 51°13.599 2°56.094 4.4 335 10.2 101490 89
2006-11-27 08:11:10 51°13.599 2°56.094 4 350 10.2 101490 89
2006-11-27 08:11:14 51°13.599 2°56.094 2.8 348 10.2 101490 89
2006-11-27 08:11:19 51°13.599 2°56.094 3.2 356 10.2 101490 89
2006-11-27 08:11:24 51°13.599 2°56.094 3.7 344 10.2 101490 89
2006-11-27 08:11:29 51°13.599 2°56.094 4.5 1 10.2 101490 89
2006-11-27 08:11:34 51°13.599 2°56.094 4.3 357 10.2 101490 89
2006-11-27 08:11:39 51°13.599 2°56.094 3.7 280 10.3 101490 89
2006-11-27 08:11:45 51°13.599 2°56.094 3.9 352 10.3 101490 89
2006-11-27 08:11:49 51°13.599 2°56.094 3.9 357 10.2 101490 89
2006-11-27 08:11:54 51°13.599 2°56.094 5.2 354 10.2 101490 89
2006-11-27 08:11:59 51°13.599 2°56.094 5.2 356 10.2 101490 89
2006-11-27 08:12:05 51°13.599 2°56.094 5.6 358 10.2 101490 89
2006-11-27 08:12:10 51°13.599 2°56.094 5.6 2 10.2 101490 89
2006-11-27 08:12:15 51°13.599 2°56.094 4.2 358 10.2 101490 89
2006-11-27 08:12:19 51°13.599 2°56.094 2.9 353 10.3 101490 89
2006-11-27 08:12:23 51°13.599 2°56.094 2.9 357 10.3 101490 89
2006-11-27 08:12:29 51°13.599 2°56.094 3.4 352 10.3 101490 89
2006-11-27 08:12:34 51°13.599 2°56.094 3.2 -999 10.3 101490 89
2006-11-27 08:12:39 51°13.599 2°56.094 2.8 279 10.3 101490 89
2006-11-27 08:12:44 51°13.599 2°56.094 3.9 354 10.3 101490 89
2006-11-27 08:12:49 51°13.599 2°56.094 4.2 343 10.3 101490 89
2006-11-27 08:12:54 51°13.599 2°56.094 4.2 355 10.3 101490 89
2006-11-27 08:12:59 51°13.599 2°56.095 5.5 286 10.3 101490 89
2006-11-27 08:13:05 51°13.599 2°56.095 5.5 348 10.3 101490 89
2006-11-27 08:13:09 51°13.599 2°56.095 4.2 347 10.3 101490 89
2006-11-27 08:13:14 51°13.599 2°56.095 4.1 351 10.3 101490 89
2006-11-27 08:13:19 51°13.599 2°56.095 3.4 283 10.3 101490 89
2006-11-27 08:13:24 51°13.599 2°56.095 4.4 348 10.3 101490 89
2006-11-27 08:13:29 51°13.599 2°56.096 3.2 3 10.3 101490 89
2006-11-27 08:13:34 51°13.599 2°56.095 3.5 356 10.3 101490 89
2006-11-27 08:13:39 51°13.599 2°56.095 5.3 349 10.3 101490 89
2006-11-27 08:13:45 51°13.599 2°56.095 5.8 345 10.3 101490 89
2006-11-27 08:13:48 51°13.599 2°56.095 5.9 345 10.3 101490 89
2006-11-27 08:13:54 51°13.598 2°56.095 6 359 10.3 101490 89
2006-11-27 08:13:59 51°13.598 2°56.095 4.4 280 10.3 101490 89
2006-11-27 08:14:05 51°13.598 2°56.096 3.5 348 10.3 101490 89
2006-11-27 08:14:09 51°13.598 2°56.096 5 348 10.3 101490 89
2006-11-27 08:14:15 51°13.598 2°56.095 2.7 332 10.3 101490 89
2006-11-27 08:14:19 51°13.597 2°56.095 3.2 281 10.3 101490 89
2006-11-27 08:14:24 51°13.597 2°56.095 4.8 342 10.3 101490 89
2006-11-27 08:14:29 51°13.597 2°56.095 4.9 360 10.3 101490 89
2006-11-27 08:14:34 51°13.596 2°56.095 4.5 2 10.3 101490 89
2006-11-27 08:14:39 51°13.596 2°56.095 3.8 6 10.3 101490 89
2006-11-27 08:14:45 51°13.596 2°56.095 3.5 352 10.3 101490 89
2006-11-27 08:14:50 51°13.596 2°56.095 3.2 285 10.3 101490 89
2006-11-27 08:14:55 51°13.596 2°56.095 3.1 356 10.3 101490 89
2006-11-27 08:14:59 51°13.596 2°56.095 4.3 281 10.3 101490 89
2006-11-27 08:15:03 51°13.596 2°56.095 3.1 344 10.3 101490 89
2006-11-27 08:15:09 51°13.596 2°56.095 3.9 359 10.3 101490 89
2006-11-27 08:15:15 51°13.596 2°56.095 3.1 349 10.3 101490 89
2006-11-27 08:15:19 51°13.596 2°56.095 4.9 283 10.3 101490 89
2006-11-27 08:15:24 51°13.596 2°56.095 5.3 350 10.3 101490 89
2006-11-27 08:15:29 51°13.596 2°56.095 3.5 356 10.3 101500 89
2006-11-27 08:15:34 51°13.596 2°56.095 3.9 346 10.3 101500 89
2006-11-27 08:15:39 51°13.596 2°56.095 4 280 10.4 101490 89
2006-11-27 08:15:45 51°13.597 2°56.095 4.5 355 10.4 101490 89
2006-11-27 08:15:49 51°13.597 2°56.096 4.1 353 10.3 101490 89
2006-11-27 08:15:54 51°13.597 2°56.096 3.9 360 10.3 101490 89
2006-11-27 08:15:59 51°13.597 2°56.096 3.6 286 10.4 101490 89
2006-11-27 08:16:03 51°13.596 2°56.095 4.5 346 10.4 101490 89
2006-11-27 08:16:09 51°13.593 2°56.094 6.2 352 10.4 101490 89
2006-11-27 08:16:14 51°13.592 2°56.094 6.4 339 10.4 101490 89
2006-11-27 08:16:19 51°13.592 2°56.094 6.6 346 10.4 101490 89
2006-11-27 08:16:24 51°13.592 2°56.095 4.6 346 10.4 101490 89
2006-11-27 08:16:29 51°13.593 2°56.095 4.6 356 10.4 101490 89
2006-11-27 08:16:34 51°13.593 2°56.095 3 356 10.4 101490 89
2006-11-27 08:16:39 51°13.594 2°56.095 4.3 286 10.4 101500 89
2006-11-27 08:16:44 51°13.594 2°56.095 4.4 344 10.4 101500 89
2006-11-27 08:16:49 51°13.594 2°56.095 5.4 355 10.4 101490 89
2006-11-27 08:16:54 51°13.595 2°56.095 4.6 344 10.4 101490 89
2006-11-27 08:16:59 51°13.595 2°56.095 4.6 286 10.4 101490 89
2006-11-27 08:17:03 51°13.595 2°56.095 6.4 346 10.4 101490 89
2006-11-27 08:17:09 51°13.595 2°56.095 5.3 286 10.4 101500 89
2006-11-27 08:17:15 51°13.594 2°56.095 5.1 357 10.4 101500 89
2006-11-27 08:17:19 51°13.594 2°56.095 2.6 350 10.4 101490 89
2006-11-27 08:17:24 51°13.594 2°56.095 4.9 355 10.4 101490 89
2006-11-27 08:17:30 51°13.595 2°56.095 4.2 358 10.4 101490 89
2006-11-27 08:17:34 51°13.595 2°56.095 3.3 339 10.4 101490 89
2006-11-27 08:17:39 51°13.595 2°56.096 3.1 280 10.4 101490 89
2006-11-27 08:17:44 51°13.596 2°56.096 3.4 350 10.4 101490 89
2006-11-27 08:17:49 51°13.596 2°56.096 3.5 355 10.4 101490 89
2006-11-27 08:17:55 51°13.597 2°56.096 3.4 341 10.4 101490 89
2006-11-27 08:18:00 51°13.597 2°56.096 5.1 353 10.4 101490 89
2006-11-27 08:18:05 51°13.597 2°56.096 3.2 346 10.4 101490 89
2006-11-27 08:18:09 51°13.597 2°56.096 2.6 283 10.4 101480 89
2006-11-27 08:18:14 51°13.598 2°56.097 4.5 342 10.4 101480 89
2006-11-27 08:18:19 51°13.598 2°56.097 3.7 353 10.4 101490 89
2006-11-27 08:18:25 51°13.598 2°56.097 3.6 343 10.4 101490 89
2006-11-27 08:18:29 51°13.598 2°56.097 3.9 281 10.4 101490 89
2006-11-27 08:18:35 51°13.598 2°56.097 4.3 360 10.4 101490 89
2006-11-27 08:18:40 51°13.599 2°56.097 4.5 350 10.4 101490 89
2006-11-27 08:18:44 51°13.599 2°56.097 4.8 359 10.4 101490 89
2006-11-27 08:18:50 51°13.599 2°56.097 5.2 -999 10.4 101500 89
2006-11-27 08:18:55 51°13.599 2°56.097 7.3 359 10.4 101500 89
2006-11-27 08:18:59 51°13.599 2°56.097 6.3 358 10.4 101500 89
2006-11-27 08:19:05 51°13.599 2°56.097 5.4 336 10.4 101500 89
2006-11-27 08:19:09 51°13.599 2°56.097 6.4 350 10.4 101500 89
2006-11-27 08:19:14 51°13.599 2°56.097 4.6 356 10.4 101500 89
2006-11-27 08:19:19 51°13.599 2°56.097 4.3 360 10.4 101490 89
2006-11-27 08:19:24 51°13.599 2°56.097 3.7 2 10.4 101490 89
2006-11-27 08:19:29 51°13.6 2°56.097 4.4 287 10.4 101490 89
2006-11-27 08:19:35 51°13.6 2°56.097 5.3 351 10.4 101490 89
2006-11-27 08:19:39 51°13.6 2°56.097 5.6 350 10.4 101490 89
2006-11-27 08:19:44 51°13.6 2°56.097 4.9 354 10.4 101490 89
2006-11-27 08:19:50 51°13.599 2°56.097 6 350 10.4 101500 89
2006-11-27 08:19:55 51°13.598 2°56.097 5.2 356 10.4 101500 89
2006-11-27 08:19:59 51°13.598 2°56.097 5.1 287 10.4 101490 89
2006-11-27 08:20:05 51°13.598 2°56.097 5.6 343 10.4 101490 89
2006-11-27 08:20:09 51°13.597 2°56.096 5.6 351 10.4 101490 89
2006-11-27 08:20:14 51°13.597 2°56.096 4.7 358 10.4 101490 89
2006-11-27 08:20:19 51°13.597 2°56.096 4.3 279 10.4 101490 89
2006-11-27 08:20:25 51°13.597 2°56.096 4.5 341 10.4 101490 89
2006-11-27 08:20:29 51°13.597 2°56.096 4.5 348 10.4 101490 89
2006-11-27 08:20:34 51°13.597 2°56.096 3.3 344 10.4 101490 89
2006-11-27 08:20:40 51°13.597 2°56.096 4 280 10.4 101490 89
2006-11-27 08:20:45 51°13.597 2°56.096 3.4 352 10.4 101490 89
2006-11-27 08:20:49 51°13.597 2°56.096 4.1 346 10.4 101490 89
2006-11-27 08:20:55 51°13.597 2°56.096 6.3 351 10.4 101490 89
2006-11-27 08:20:59 51°13.597 2°56.097 4.9 360 10.4 101490 89
2006-11-27 08:21:03 51°13.598 2°56.097 4.5 349 10.4 101490 89
2006-11-27 08:21:08 51°13.598 2°56.097 6.3 355 10.4 101490 89
2006-11-27 08:21:15 51°13.598 2°56.097 5.3 353 10.4 101490 89
2006-11-27 08:21:19 51°13.598 2°56.097 4.7 359 10.5 101490 89
2006-11-27 08:21:25 51°13.598 2°56.097 4 -999 10.5 101490 89
2006-11-27 08:21:29 51°13.598 2°56.097 4.6 345 10.5 101490 89
2006-11-27 08:21:34 51°13.598 2°56.097 5.4 338 10.5 101490 89
2006-11-27 08:21:39 51°13.598 2°56.097 4 351 10.5 101490 89
2006-11-27 08:21:44 51°13.598 2°56.097 3.5 343 10.5 101490 89
2006-11-27 08:21:49 51°13.597 2°56.097 4.2 344 10.5 101490 89
2006-11-27 08:21:55 51°13.597 2°56.097 4.7 349 10.5 101490 89
2006-11-27 08:21:59 51°13.597 2°56.097 4 285 10.5 101490 89
2006-11-27 08:22:05 51°13.597 2°56.097 4 334 10.5 101490 89
2006-11-27 08:22:09 51°13.597 2°56.097 5.1 285 10.5 101490 89
2006-11-27 08:22:15 51°13.598 2°56.097 4.4 342 10.5 101490 89
2006-11-27 08:22:19 51°13.598 2°56.097 5.4 347 10.5 101500 89
2006-11-27 08:22:25 51°13.598 2°56.097 7.5 356 10.5 101500 89
2006-11-27 08:22:29 51°13.598 2°56.097 5.3 281 10.5 101500 89
2006-11-27 08:22:34 51°13.599 2°56.097 5.1 346 10.5 101500 89
2006-11-27 08:22:39 51°13.599 2°56.097 5 359 10.5 101500 89
2006-11-27 08:22:45 51°13.599 2°56.097 4.6 354 10.5 101500 89
2006-11-27 08:22:49 51°13.598 2°56.097 4.4 357 10.5 101500 89
2006-11-27 08:22:54 51°13.598 2°56.096 3.9 346 10.5 101500 89